www.pogodaiklimat.ru

Погода и климат >> Архив погоды >> Боливия >> San Ignacio De Velasco


ПОГОДА в San Ignacio De Velasco

  • Прогноз погоды в San Ignacio De Velasco
  • Монитор погоды в San Ignacio De Velasco
  • Климат города

АРХИВ ПОГОДЫ в San Ignacio De Velasco

Время (UTC), дата Ветер
(напр.,м/с)
 
Видим.   Явления Облачность Т
(С)
Тd
(С)
f
(%)
Тe
(С)
Тes
(С)
Комфортность P
(гПа)
Po
(гПа)
Тmin
(С)
Tmax
(С)
R
(мм)
R24
(мм)
S
(см)
12 16.01 штиль 0 30 км 6/4 500 м
[Sc diur, vesp Ac trans]
+23.0 +22.2 95 +31 +35 очень
душно
1014.0 967.1 +21.3
15 16.01 штиль 0 30 км 6/0 2000 м
[Ac trans]
+28.2 +23.5 76 +38 +56 опасность
солнечного
удара
1014.5 967.6
18 16.01 штиль 0 30 км 8/6 500 м
[Cu med, cong Ac lent]
+30.5 +23.2 65 +41 +46 опасность
перегрева
1013.2 965.5
21 16.01 штиль 0 30 км 5/3 500 м
[Cu med, cong Ci sp]
+31.2 +23.2 63 +42 +44 опасность
перегрева
1010.0 963.3 +31.6
12 17.01 штиль 0 30 км 6/0 2000 м
[Ac trans]
+23.6 +22.7 95 +31 +37 очень
душно
1013.5 966.5 +23.0
15 17.01 С 3 30 км 6/6 500 м
[Cu med, cong]
+27.7 +24.2 81 +39 +45 очень
душно
1013.7 967.0
18 17.01 СЗ 3 30 км 6/6 500 м
[Cu med, cong]
+30.8 +23.2 64 +41 +47 опасность
перегрева
1012.0 965.0
21 17.01 штиль 0 30 км 8/4 500 м
[Cu med, cong Ci sp]
+28.3 +23.8 77 +39 +41 очень
душно
1010.8 963.0 +31.5
12 18.01 штиль 0 30 км 8/4 240 м
[Sc Ac lent]
+23.0 +21.6 92 +31 +33 очень
душно
1013.8 967.2 +21.8
15 18.01 штиль 0 30 км 5/5 500 м
[Cu med, cong]
+28.0 +23.7 77 +38 +52 опасность
солнечного
удара
1015.3 967.5
18 18.01 штиль 0 30 км 5/5 600 м
[Cu med, cong]
+32.0 +23.2 60 +43 +54 опасность
перегрева
1012.0 965.2
21 18.01 штиль 0 30 км 4/4 600 м
[Cu med, cong]
+31.5 +22.7 60 +41 +43 опасность
перегрева
1008.8 962.0 +32.6
12 19.01 штиль 0 30 км 4/0 2000 м
[Ac trans]
+26.2 +23.9 87 +36 +42 очень
душно
1014.6 967.7 +20.0
15 19.01 штиль 0 30 км 5/5 500 м
[Cu med, cong]
+30.0 +24.4 72 +42 +56 опасность
перегрева
1015.2 967.7
18 19.01 штиль 0 30 км 5/5 500 м
[Cu med, cong]
+32.0 +24.0 63 +44 +56 опасность
перегрева
1012.0 964.5
21 19.01 ЮЗ 4 30 км 6/5 500 м
[Cb cap Ci ing]
+30.0 +24.7 73 +43 +43 опасность
перегрева
1009.2 962.0 +32.5
12 20.01 СЗ 3 30 км 8/8 450 м
[Sc]
+23.0 +21.5 91 +31 +32 очень
душно
1013.6 966.7 +21.0 18
15 20.01 штиль 0 30 км 4/4 600 м
[Cu med, cong]
+27.8 +23.2 76 +37 +54 опасность
солнечного
удара
1013.8 966.0
18 20.01 штиль 0 30 км 4/4 600 м
[Cu med, cong]
+31.5 +23.4 62 +42 +56 опасность
перегрева
1011.8 963.5
21 20.01 штиль 0 30 км 3/3 600 м
[Cu med, cong]
+31.0 +22.5 61 +41 +43 опасность
перегрева
1009.2 960.8 +32.4
12 21.01 штиль 0 30 км ясно +24.5 +22.4 88 +32 +40 очень
душно
1012.2 965.5 +21.5
15 21.01 СЗ 5 30 км ясно +30.8 +23.7 66 +42 +52 опасность
перегрева
1010.8 965.2
18 21.01 СЗ 4 30 км 4/4 600 м
[Cu med, cong]
+32.4 +23.2 58 +43 +50 опасность
перегрева
1009.3 962.5
21 21.01 штиль 0 30 км 3/3 600 м
[Cu med, cong]
+30.2 +23.7 68 +41 +44 опасность
перегрева
1007.2 959.5 +32.8
12 22.01 СЗ 3 30 км ясно +24.5 +22.4 88 +32 +37 очень
душно
1011.0 964.3 +22.1
15 22.01 СЗ 3 30 км 5/5 500 м
[Cu med, cong]
+30.0 +23.7 69 +41 +50 опасность
перегрева
1012.0 964.3
18 22.01 штиль 0 30 км 5/5 500 м
[Cu med, cong]
+32.0 +22.5 57 +41 +53 опасность
перегрева
1008.0 961.0
21 22.01 СЗ 3 30 км 4/4 500 м
[Cu med, cong]
+31.5 +22.6 59 +41 +42 опасность
перегрева
1005.0 958.5 +33.0

 

Местоположение метеостанции San Ignacio De Velasco (Боливия): широта -16.38 долгота -60.96 высота над уровнем моря 413 м.

В архиве по умолчанию представлена погода в San Ignacio De Velasco за последнюю неделю. Архивные данные за месяц целиком и за предыдущие месяцы, начиная с января 2011 года, Вы можете получить, выбрав интересующий диапазон дат из раскрывающегося списка и нажав кнопку "Ввод!".

Внимание! Время в таблицах - всемирное. Для получения местного времени необходимо прибавить поправку, которая в San Ignacio De Velasco равна -4 ч.

Смотрите также архив погоды в соседних городах и на ближайших метеорологических станциях:

Погода в Concepcion (Боливия) (115 км)
Погода в San Jose De Chiquitos (Боливия) (160 км)
Погода в San Javier (Боливия) (161 км)
Погода в Vila Bela da S Trind (Бразилия) (187 км)
Погода в Pontes E Lacerda (Бразилия) (213 км)
Погода в Ascencion De Guaray (Боливия) (241 км)
Погода в Robore (Боливия) (250 км)
Погода в Viru-Viru (Боливия) (269 км)
Погода в San Matias (Боливия) (275 км)
Погода в Santa Cruz (Боливия) (284 км)

Пояснения к столбцам:

Ветер - указаны скорость ветра в м/с - средняя за 10 мин, порывы в срок и между сроками (в фигурных скобках) и направление, откуда дует ветер: С - северный, СВ - северо-восточный, В - восточный, ЮВ - юго-восточный, Ю - южный, ЮЗ - юго-западный, З - западный, СЗ - северо-западный.
Видимость - горизонтальная дальность видимости в метрах или километрах. При видимости от 1 до 10 км при отсутствии осадков обычно наблюдается дымка, при ухудшении видимости до 1 км и менее - туман. В сухую погоду видимость может ухудшаться дымом, пылью или мглою.
Явления - указаны атмосферные явления, наблюдавшиеся в срок или в последний час перед сроком; фигурными скобками обозначены явления, наблюдавшиеся между сроками (за 1-3 часа до срока); квадратными скобками обозначены град или гололедные отложения с указанием их диаметра в мм.
Облачность - указаны через наклонную черту общая и нижняя облачность в баллах и высота нижней границы облаков в метрах; квадратными скобками обозначены формы облаков: Ci - перистые, Cs - перисто-слоистые, Cc - перисто-кучевые, Ac - высококучевые, As - высокослоистые, Sc - слоисто-кучевые, Ns - слоисто-дождевые, Cu - кучевые, Cb - кучево-дождевые. Подробнее классификацию облаков см. в Атласе облаков (PDF).
T - Температура воздуха - температура, измеренная на высоте 2 м над землей.
Td - Температура точки росы - температура, при понижении до которой содержащийся в воздухе водяной пар достигнет насыщения.
f - Относительная влажность воздуха - влажноcть воздуха, измеренная на высоте 2 м над землей.
Te - Эффективная температура - температура, которую ощущает одетый по сезону человек в тени. Характеристика душности погоды. При расчете учитывается влияние влажности воздуха и скорости ветра на теплоощущения человека.
Tes - Эффективная температура на солнце - температура, которую ощущает человек, с поправкой на солнечный нагрев. Характеристика знойности погоды. Зависит от высоты солнца над горизонтом, облачности и скорости ветра. Ночью, в пасмурную погоду, а также при ветре 12 м/с и более поправка равна нулю.
P - Атмосферное давление - приведенное к уровню моря атмосферное давление.
Po - Атмосферное давление - измеренное на уровне метеостанции атмосферное давление.
Tmin - Минимальная температура - минимум температуры воздуха на высоте 2 м над землей.
Tmax - Максимальная температура - максимум температуры воздуха на высоте 2 м над землей.
R - Количество осадков - Количество выпавших осадков за период времени, мм. При наведении курсора мыши на число - период времени, за который выпало указанное количество осадков.
R24 - Количество осадков - Количество выпавших осадков за 24 часа, мм.
S - Снежный покров - Высота снежного покрова, см. При наведении курсора мыши на число - состояние снежного покрова и степень покрытия местности в баллах.